Weather History for KHUL - June, 2013

Change the Weather History Date:

Sunday, June 16, 2013

  Actual Average Record
Temperature  
Mean Temperature 54 °F 60 °F  
Max Temperature 68 °F 73 °F 92 °F (1976)
Min Temperature 40 °F 48 °F 32 °F (1992)
Degree Days  
Heating Degree Days 11 6  
Month to date heating degree days 122 120  
Since 1 June heating degree days 122 120  
Since 1 July heating degree days 8472 9127  
Cooling Degree Days 0 1  
Month to date cooling degree days 10 12  
Year to date cooling degree days 14 16  
Since 1 June cooling degree days 10 12  
Growing Degree Days 5 (Base 50)    
Moisture  
Dew Point 46 °F    
Average Humidity 68    
Maximum Humidity 96    
Minimum Humidity 39    
Precipitation  
Precipitation 0.19 in 0.12 in 0.77 in (1967)
Month to date precipitation 4.09 1.86  
Year to date precipitation 15.32 16.49  
Sea Level Pressure  
Sea Level Pressure 29.81 in    
Wind  
Wind Speed 3 mph (North)    
Max Wind Speed 12 mph    
Max Gust Speed 14 mph    
Visibility 9 miles    
Events Rain    
T = Trace of Precipitation, MM = Missing Value Source: NWS Daily Summary

Daily Weather History Graph

Daily Weather History Graph

Search for Another Location

Airport or City:

Trip Planner

Search our weather history database for the weather conditions in past years. The results will help you decide how hot, cold, wet, or windy it might be!

Date:

Astronomy

Jun. 16, 2013 Rise Set
Actual Time 4:39 AM EDT 8:24 PM EDT
Civil Twilight 4:00 AM EDT 9:03 PM EDT
Nautical Twilight 3:08 AM EDT 9:55 PM EDT
Astronomical Twilight 1:55 AM EDT 11:09 PM EDT
Moon 12:35 PM EDT (6/16) 12:05 AM EDT (6/16)
Length of Visible Light 17h 02m
Length of Day
15h 45m
Waxing Crescent, 49% of the Moon is Illuminated
Jun 16
Waxing Crescent
Jun 16
First Quarter
Jun 23
Full
Jun 30
Last Quarter
Jul 8
New

Hourly Weather History & Observations

Time (EDT) Temp. Dew Point Humidity Pressure Visibility Wind Dir Wind Speed Gust Speed Precip Events Conditions
12:53 AM 51.1 °F 46.9 °F 86% 29.78 in 10.0 mi Calm Calm - N/A   Partly Cloudy
1:53 AM 50.0 °F 46.9 °F 89% 29.79 in 10.0 mi WSW 4.6 mph - N/A   Mostly Cloudy
2:53 AM 50.0 °F 46.0 °F 86% 29.80 in 10.0 mi Calm Calm - N/A   Overcast
3:53 AM 45.0 °F 43.0 °F 93% 29.82 in 9.0 mi Calm Calm - N/A   Partly Cloudy
4:53 AM 42.1 °F 41.0 °F 96% 29.83 in 7.0 mi Calm Calm - N/A   Clear
5:53 AM 44.1 °F 43.0 °F 96% 29.85 in 10.0 mi Calm Calm - N/A   Scattered Clouds
6:53 AM 54.0 °F 43.0 °F 66% 29.87 in 10.0 mi NNW 4.6 mph - N/A   Clear
7:53 AM 57.0 °F 39.9 °F 53% 29.88 in 10.0 mi NNW 3.5 mph - N/A   Clear
8:53 AM 60.1 °F 39.0 °F 46% 29.88 in 10.0 mi NNW 6.9 mph - N/A   Clear
9:53 AM 63.0 °F 37.9 °F 40% 29.86 in 10.0 mi Variable 4.6 mph - N/A   Clear
10:53 AM 64.9 °F 39.9 °F 40% 29.86 in 10.0 mi Variable 5.8 mph - N/A   Clear
11:53 AM 66.0 °F 41.0 °F 40% 29.84 in 10.0 mi Variable 3.5 mph - N/A   Partly Cloudy
12:53 PM 68.0 °F 43.0 °F 40% 29.83 in 10.0 mi NE 4.6 mph - N/A   Clear
1:53 PM 68.0 °F 44.1 °F 42% 29.81 in 10.0 mi NNW 4.6 mph - N/A   Clear
2:53 PM 64.9 °F 45.0 °F 48% 29.80 in 10.0 mi NNE 4.6 mph - N/A   Overcast
3:53 PM 64.0 °F 45.0 °F 50% 29.78 in 10.0 mi ENE 4.6 mph - 0.00 in Rain Light Rain
4:53 PM 60.1 °F 48.0 °F 64% 29.78 in 10.0 mi NNE 5.8 mph - 0.01 in Rain Light Rain
5:53 PM 57.0 °F 52.0 °F 83% 29.81 in 5.0 mi Calm Calm - 0.07 in Rain Rain
6:53 PM 55.0 °F 53.1 °F 93% 29.81 in 6.0 mi WNW 5.8 mph - 0.07 in Rain Light Rain
7:53 PM 54.0 °F 52.0 °F 93% 29.77 in 10.0 mi North 3.5 mph - 0.01 in   Overcast
8:53 PM 53.1 °F 52.0 °F 96% 29.76 in 10.0 mi North 3.5 mph - 0.01 in   Overcast
9:53 PM 53.1 °F 52.0 °F 96% 29.76 in 9.0 mi Calm Calm - 0.00 in Rain Light Rain
10:53 PM 53.1 °F 52.0 °F 96% 29.75 in 9.0 mi North 3.5 mph - 0.01 in   Overcast
11:17 PM 53.6 °F 51.8 °F 94% 29.74 in 7.0 mi North 4.6 mph - 0.00 in Rain Light Rain
11:53 PM 53.1 °F 52.0 °F 96% 29.74 in 10.0 mi Calm Calm - 0.01 in Rain Light Rain